Simultaneous Nadir Overpasses (SNOs) Predictions

Prediction of SNOs between NOAA-19 and TERRA Satellite Orbit:

Table of predicted SNOs for the next 14.0 days since TLE Epoch: 2/24/2024
Index Date (NOAA-19) Time (NOAA-19) Lat,Lon (NOAA-19) SZA (NOAA-19 ) Date (TERRA) Time (TERRA) Lat,Lon (TERRA) SZA (TERRA ) Distance(km) Time Diff (sec)
1 02/26/2024 04:32:29 -80.22, -44.93 90.35 02/26/2024 04:32:21 -80.23, -44.80 90.33 2.82 8
2 02/28/2024 07:31:41 -80.16, -90.53 91.24 02/28/2024 07:32:38 -80.16, -90.52 91.23 0.31 57
3 02/28/2024 08:22:39 80.24, 77.90 88.90 02/28/2024 08:21:56 80.24, 77.83 88.88 1.27 43
4 03/01/2024 11:21:51 80.18, 32.38 88.01 03/01/2024 11:22:12 80.18, 32.29 88.00 1.71 21
5 03/01/2024 12:12:45 -80.24,-159.64 91.92 03/01/2024 12:11:33 -80.24,-159.53 91.93 2.37 72
6 03/03/2024 15:11:56 -80.19, 154.98 92.81 03/03/2024 15:11:49 -80.18, 154.82 92.83 3.17 7
7 03/05/2024 18:11:09 -80.09, 108.92 93.79 03/05/2024 18:12:05 -80.10, 109.07 93.76 2.91 56
8 03/05/2024 19:02:08 80.18, -82.61 86.36 03/05/2024 19:01:23 80.18, -82.61 86.35 0.43 45
9 03/07/2024 22:01:20 80.11,-128.30 85.43 03/07/2024 22:01:38 80.12,-128.18 85.44 2.63 18



Historial Predications of SNOs between NOAA-19 and TERRA
